Newburgh, NY

5:52 AM EDT on July 27, 2017 (GMT -0400)
Stewart International

Weather History for KSWF - February, 2013

Change the Weather History Date:

Wednesday, February 27, 2013

  Actual Average Record
Temperature  
Mean Temperature 38 °F -  
Max Temperature 44 °F 39 °F 50 °F (2017)
Min Temperature 32 °F 23 °F 3 °F (2014)
Degree Days  
Heating Degree Days 27    
Moisture  
Dew Point 37 °F    
Average Humidity 93    
Maximum Humidity 100    
Minimum Humidity 87    
Precipitation  
Precipitation 0.00 in - - ()
Sea Level Pressure  
Sea Level Pressure 29.67 in    
Wind  
Wind Speed 15 mph (East)    
Max Wind Speed 23 mph    
Max Gust Speed 34 mph    
Visibility 6 miles    
Events Rain    
Averages and records for this station are not official NWS values.
T = Trace of Precipitation, MM = Missing Value Source: NWS Daily Summary

Daily Weather History Graph

Daily Weather History Graph

Search for Another Location

Airport or City:

Trip Planner

Search our weather history database for the weather conditions in past years. The results will help you decide how hot, cold, wet, or windy it might be!

Date:

Astronomy

Feb. 27, 2013 Rise Set
Actual Time 6:33 AM EST 5:44 PM EST
Civil Twilight 6:05 AM EST 6:12 PM EST
Nautical Twilight 5:33 AM EST 6:44 PM EST
Astronomical Twilight 5:01 AM EST 7:17 PM EST
Moon 8:05 PM EST 7:05 AM EST
Length of Visible Light 12h 06m
Length of Day
11h 11m
Waning Gibbous, 96% of the Moon is Illuminated
Feb 27
Waning Gibbous
Mar 4
Last Quarter
Mar 11
New
Mar 19
First Quarter
Mar 27
Full

Hourly Weather History & Observations

Time (EST) Temp. Windchill Dew Point Humidity Pressure Visibility Wind Dir Wind Speed Gust Speed Precip Events Conditions
12:45 AM 32.0 °F 22.1 °F 30.2 °F 93% 29.94 in 7.0 mi East 13.8 mph - N/A Rain Light Freezing Rain
1:45 AM 33.8 °F 24.3 °F 32.0 °F 93% 29.92 in 4.0 mi ENE 13.8 mph - N/A Rain Light Freezing Rain
2:45 AM 33.8 °F 23.9 °F 32.0 °F 93% 29.88 in 3.0 mi ENE 15.0 mph - N/A Rain Light Freezing Rain
3:45 AM 33.8 °F 22.8 °F 32.0 °F 93% 29.82 in 3.0 mi ENE 18.4 mph - N/A Rain Light Freezing Rain
4:45 AM 33.8 °F 22.8 °F 33.8 °F 100% 29.80 in 3.0 mi ENE 18.4 mph - N/A Rain Light Rain
5:45 AM 35.6 °F 25.2 °F 33.8 °F 93% 29.76 in 3.0 mi ENE 18.4 mph - N/A Rain Light Rain
6:45 AM 35.6 °F 25.9 °F 35.6 °F 100% 29.71 in 4.0 mi ENE 16.1 mph 25.3 mph N/A Rain Light Rain
7:45 AM 37.4 °F 27.5 °F 35.6 °F 93% 29.68 in 5.0 mi ENE 18.4 mph 26.5 mph N/A Rain Light Rain
8:45 AM 39.2 °F 28.7 °F 35.6 °F 87% 29.64 in 10.0 mi NNE 23.0 mph 34.5 mph N/A Rain Light Rain
9:45 AM 41.0 °F 32.8 °F 39.2 °F 93% 29.62 in 10.0 mi East 16.1 mph 23.0 mph N/A   Overcast
10:45 AM 42.8 °F 34.3 °F 41.0 °F 93% - 5.0 mi East 19.6 mph 33.4 mph N/A Rain Light Rain
11:45 AM 42.8 °F 34.5 °F 41.0 °F 93% 29.57 in 7.0 mi East 18.4 mph 23.0 mph N/A Rain Light Rain
12:45 PM 42.8 °F 34.3 °F 41.0 °F 93% 29.54 in 5.0 mi East 19.6 mph 24.2 mph N/A Rain Light Rain
1:45 PM 44.6 °F 37.4 °F 41.0 °F 87% 29.52 in 4.0 mi ESE 16.1 mph 23.0 mph N/A Rain Light Rain
3:45 PM 42.8 °F 38.6 °F 41.0 °F 93% 29.53 in 6.0 mi SE 6.9 mph - N/A Rain Light Rain
4:15 PM 42.8 °F 41.1 °F 42.8 °F 100% 29.54 in 2.0 mi South 3.5 mph - N/A Rain Light Rain
4:50 PM 42.8 °F 40.1 °F 42.8 °F 100% 29.55 in 2.0 mi SSE 4.6 mph - N/A Rain Light Rain
5:50 PM 42.8 °F 38.6 °F 41.0 °F 93% 29.58 in 1.2 mi South 6.9 mph - N/A Rain Light Rain
6:50 PM 41.0 °F 33.5 °F 39.2 °F 93% 29.61 in 7.0 mi West 13.8 mph - N/A   Mostly Cloudy
8:50 PM 39.2 °F 34.2 °F 35.6 °F 87% 29.63 in 10.0 mi West 6.9 mph - N/A   Mostly Cloudy
9:50 PM 37.4 °F 30.8 °F 33.8 °F 87% 29.64 in 20.0 mi West 9.2 mph - N/A   Scattered Clouds